Weather Roundup
Issued by NWS

Home | Current Version | Previous Version | Graphics & Text | Print | Product List | Glossary Off
Versions: 1 2 3 4 5 6 7 8 9 10 11 12 13 14 15 16 17 18 19 20 21 22 23 24 25 26 27 28 29 30 31 32 33 34 35 36 37 38 39 40 41 42 43 44 45 46 47 48 49 50

835
NZUS93 KARX 101410
HRRWXR

CURRENT HOURLY OBSERVATIONS ACROSS
MUCH OF THE UPPER MISSISSIPPI VALLEY
NATIONAL WEATHER SERVICE LA CROSSE WI
800 AM CST WED FEB 10 2016


...SOUTHEAST MINNESOTA...


CITY           SKY/WX    TMP DP  RH WIND       PRES   REMARKS
ROCHESTER      CLOUDY     1  -5  75 NW6       30.06S WCI -10
ROCHESTER/MAYO FAIR       3  -3  74 NW5       30.08R WCI  -6
WINONA         CLOUDY     3  -4  72 CALM      30.12S
AUSTIN         CLOUDY     3  -2  78 NW3       30.07S
ALBERT LEA     CLOUDY     5   0  78 CALM      30.06F
DODGE CENTER   CLOUDY     1  -4  78 N3        30.06R
PRESTON        CLOUDY    -1  -7  75 N6        30.06S WCI -12
OWATONNA       CLOUDY     1  -4  78 CALM      30.09R
FARIBAULT        N/A      1  -4  78 CALM      30.11R
$$

...ELSEWHERE IN MINNESOTA...


CITY           SKY/WX    TMP DP  RH WIND       PRES   REMARKS
MINNEAPOLIS    MOCLDY     4  -5  66 N6        30.13R WCI  -7
INTNL FALLS    CLOUDY   -16 -21  78 NE6       30.12F WCI -31
DULUTH         CLOUDY   -10 -16  74 N10       30.04R WCI -29
RED WING       MOCLDY     1  -6  71 CALM      30.12R
REDWOOD FALLS  LGT SNOW   7   2  80 E5        30.09S WCI  -2
MANKATO        CLOUDY     5  -2  72 NE5       30.09F WCI  -4
WORTHINGTON    CLOUDY    10   7  85 E13       30.01F WCI  -5
FAIRMONT       CLOUDY     7   0  72 E3        30.06S
$$

...SOUTHWEST WISCONSIN...


CITY           SKY/WX    TMP DP  RH WIND       PRES   REMARKS
LA CROSSE      PTCLDY     1  -7  68 CALM      30.11S
PRAIRIE DU CHI CLOUDY     4  -6  64 NW5       30.11S WCI  -5
BOSCOBEL       PTCLDY    -3  -8  79 CALM      30.11R
LONE ROCK      CLOUDY     3  -6  66 NW9       30.09R WCI -12
PLATTEVILLE    PTCLDY     3  -4  72 NW7       30.06R WCI  -9
FORT MC COY    PTCLDY   -12 -16  81 E5        30.09S WCI -24
CAMP DOUGLAS   PTCLDY    -6  -8  92 NW6       30.06R WCI -18
VIROQUA        FAIR      -2  -8  76 NW6       30.02F WCI -14
WIS DELLS      PTCLDY     1  -6  73 W3        30.04R
$$

...ELSEWHERE IN WISCONSIN...


CITY           SKY/WX    TMP DP  RH WIND       PRES   REMARKS
MILWAUKEE      PTCLDY    10  -1  61 NW10G20   29.99R WCI  -4
MADISON        PTCLDY     4  -4  69 NW9       30.04R WCI -10
GREEN BAY      CLEAR      4  -5  66 NW6       30.00R WCI  -7
EAU CLAIRE     PTCLDY    -3  -9  75 NE3       30.08F
BLACK RVR FLS  FAIR     -10 -15  77 W3        30.08F
MEDFORD        PTCLDY    -4  -8  84 NW7       29.98S WCI -18
WAUSAU         CLOUDY     7  -2  66 NW9       29.98R WCI  -7
WIS RAPIDS     CLOUDY     4  -4  69 NW12      30.03R WCI -12
MARSHFIELD     PTCLDY    -2  -9  72 NW10      29.99S WCI -19
RICE LAKE      CLOUDY    -3  -8  80 W5        30.08F WCI -14
$$

...NORTHEAST IOWA...


CITY           SKY/WX    TMP DP  RH WIND       PRES   REMARKS
WATERLOO       MOCLDY     5  -1  76 NW6       30.11S WCI  -6
DUBUQUE        CLOUDY     5  -4  66 NW13      30.06R WCI -12
DECORAH        CLOUDY     1  -8  66 NW8       30.05F WCI -12
MASON CITY     CLOUDY     6  -1  73 N5        30.09S WCI  -3
CHARLES CITY   CLOUDY     3  -2  78 N7        30.09S WCI  -9
OELWEIN        CLOUDY     3  -4  72 NW7       30.09S WCI  -9
$$

...ELSEWHERE IN IOWA...


CITY           SKY/WX    TMP DP  RH WIND       PRES   REMARKS
DES MOINES     LGT SNOW  16   9  74 CALM      30.10S
IOWA CITY      CLOUDY    10   1  67 NW6       30.14F WCI   0
FORT DODGE     CLOUDY    10   3  72 E8        30.07F WCI  -1
MARSHALLTOWN   CLOUDY     9   2  73 NW5       30.10S WCI   1
CEDAR RAPIDS   CLOUDY     8   2  76 N7        30.10S WCI  -3
$$

...NORTHERN ILLINOIS...


CITY           SKY/WX    TMP DP  RH WIND       PRES   REMARKS
CHICAGO-OHARE  MOSUNNY   10   1  67 W14       30.01R WCI  -6
CHICAGO-MIDWAY MOSUNNY   11   0  61 NW14      30.02R WCI  -5
MOLINE         PTCLDY     9  -1  64 NW10      30.12S WCI  -5
ROCKFORD       PTCLDY     7  -2  66 NW12      30.06R WCI  -8
PEORIA         CLEAR      9   1  70 W7        30.12R WCI  -2
$$

NOTE: "FAIR" INDICATES FEW OR NO CLOUDS BELOW 12,000 FEET WITH NO
SIGNIFICANT WEATHER AND/OR OBSTRUCTIONS TO VISIBILITY. WIND
SPEEDS ARE IN MILES-PER-HOUR.




USA.gov is the U.S. government's official web portal to all federal, state and local government web resources and services.